Location: Newark
(50.2306°N, 14.0814°E)
Time: 20:37:59
(UTC+00:00)

N. Korean satellite - Pass Details

Date: 08 December 2019
Orbit: 454 x 507 km, 97.2° (Epoch: 28 January)

Event Time Altitude Azimuth Distance (km) Brightness Sun altitude
Rises 16:28:59 0° 185° (S) 2,602 10.6 -13.2°
Reaches altitude 10° 16:31:10 10° 193° (SSW) 1,721 9.8 -13.6°
Maximum altitude 16:34:39 37° 263° (W) 796 8.3 -14.1°
Drops below altitude 10° 16:38:08 10° 332° (NNW) 1,725 9.5 -14.6°
Sets 16:40:20 0° 341° (NNW) 2,609 10.3 -14.9°
